,,,PA_Meas_PMT16A,,PR_Meas_QMR101_102,,RH_Meas_QMH101,,SR_Meas_QMS101,,TA_Meas_QMH101,,GenWind,,GenWind,
date,time,status,PA,status,PR,status,RH,status,SR,status,TA,status,DirAvg,status,SpdAvg,
2010-02-16, 00:00:04,VALID,1002.25,VALID,0,VALID,88.5189,VALID,0,VALID,24.6946,VALID,237,VALID,0.648438,
2010-02-16, 00:01:04,VALID,1002.21,VALID,0,VALID,88.4731,VALID,0,VALID,24.6556,VALID,237,VALID,0.895312,
2010-02-16, 00:02:04,VALID,1002.21,VALID,0,VALID,88.4273,VALID,0,VALID,24.6361,VALID,255,VALID,0.950781,
2010-02-16, 00:03:04,VALID,1002.21,VALID,0,VALID,88.5799,VALID,0,VALID,24.6556,VALID,271,VALID,0.542969,
2010-02-16, 00:04:04,VALID,1002.2,VALID,0,VALID,88.5494,VALID,0.112286,VALID,24.6361,VALID,260,VALID,0.789844,
2010-02-16, 00:05:04,VALID,1002.25,VALID,0,VALID,88.5265,VALID,0,VALID,24.6361,VALID,249,VALID,0.402344,
2010-02-16, 00:06:04,VALID,1002.18,VALID,0,VALID,88.5265,VALID,0,VALID,24.6184,VALID,249,VALID,0.491406,
2010-02-16, 00:07:04,VALID,1002.22,VALID,0,VALID,88.5494,VALID,0,VALID,24.6166,VALID,249,VALID,0.0121094,
2010-02-16, 00:08:04,VALID,1002.2,VALID,0,VALID,88.5723,VALID,0,VALID,24.5971,VALID,249,VALID,0,
2010-02-16, 00:09:04,VALID,1002.2,VALID,0,VALID,88.6638,VALID,0,VALID,24.638,VALID,249,VALID,0,
2010-02-16, 00:10:04,VALID,1002.17,VALID,0,VALID,88.5723,VALID,0,VALID,24.5971,VALID,236,VALID,0.0640625,
2010-02-16, 00:11:04,VALID,1002.21,VALID,0,VALID,88.4883,VALID,0,VALID,24.6166,VALID,225,VALID,0.325,
2010-02-16, 00:12:04,VALID,1002.15,VALID,0,VALID,88.4654,VALID,0,VALID,24.638,VALID,225,VALID,0.412109,
2010-02-16, 00:13:04,VALID,1002.17,VALID,0,VALID,88.4273,VALID,0,VALID,24.6361,VALID,225,VALID,0.705078,
2010-02-16, 00:14:04,VALID,1002.19,VALID,0,VALID,88.3357,VALID,0,VALID,24.6556,VALID,236,VALID,0.8875,
2010-02-16, 00:15:04,VALID,1002.16,VALID,0,VALID,88.2137,VALID,0,VALID,24.6946,VALID,239,VALID,0.849609,
2010-02-16, 00:16:04,VALID,1002.17,VALID,0,VALID,88.0458,VALID,0,VALID,24.7142,VALID,239,VALID,0.860937,
2010-02-16, 00:17:04,VALID,1002.15,VALID,0,VALID,87.9924,VALID,0,VALID,24.7337,VALID,239,VALID,0.519141,
2010-02-16, 00:18:04,VALID,1002.19,VALID,0,VALID,88.0306,VALID,0.112286,VALID,24.7746,VALID,239,VALID,0.116797,
2010-02-16, 00:19:04,VALID,1002.22,VALID,0,VALID,88.0534,VALID,0,VALID,24.7727,VALID,239,VALID,0.0304688,
2010-02-16, 00:20:04,VALID,1002.17,VALID,0,VALID,88.0763,VALID,0,VALID,24.7532,VALID,239,VALID,0,
2010-02-16, 00:21:04,VALID,1002.16,VALID,0,VALID,88.0382,VALID,0,VALID,24.7532,VALID,239,VALID,0.133203,
2010-02-16, 00:22:04,VALID,1002.13,VALID,0,VALID,87.9009,VALID,0,VALID,24.7337,VALID,183,VALID,0.810156,
2010-02-16, 00:23:04,VALID,1002.11,VALID,0,VALID,87.6491,VALID,0,VALID,24.7337,VALID,164,VALID,0.848828,
2010-02-16, 00:24:04,VALID,1002.1,VALID,0,VALID,87.8551,VALID,0,VALID,24.7356,VALID,146,VALID,0.610547,
2010-02-16, 00:25:04,VALID,1002.08,VALID,0,VALID,87.9009,VALID,0,VALID,24.7142,VALID,147,VALID,0.639063,
2010-02-16, 00:26:04,VALID,1002.09,VALID,0,VALID,87.8856,VALID,0,VALID,24.6751,VALID,145,VALID,0.531641,
2010-02-16, 00:27:04,VALID,1002.06,VALID,0,VALID,87.9161,VALID,0,VALID,24.6556,VALID,139,VALID,0.217578,
2010-02-16, 00:28:04,VALID,1002.05,VALID,0,VALID,88.1832,VALID,0,VALID,24.677,VALID,189,VALID,0.506641,
2010-02-16, 00:29:04,VALID,1002.05,VALID,0,VALID,88.2823,VALID,0,VALID,24.6575,VALID,196,VALID,0.437109,
2010-02-16, 00:30:04,VALID,1002,VALID,0,VALID,88.206,VALID,0,VALID,24.677,VALID,200,VALID,0.660547,
2010-02-16, 00:31:04,VALID,1002.04,VALID,0,VALID,87.9161,VALID,0,VALID,24.6965,VALID,191,VALID,0.951172,
2010-02-16, 00:32:04,VALID,1002.03,VALID,0,VALID,87.733,VALID,0,VALID,24.7374,VALID,169,VALID,0.801953,
2010-02-16, 00:33:04,VALID,1002.03,VALID,0,VALID,87.4049,VALID,0,VALID,24.7179,VALID,137,VALID,1.15547,
2010-02-16, 00:34:04,VALID,1002.04,VALID,0,VALID,87.5957,VALID,0,VALID,24.677,VALID,134,VALID,1.16562,
2010-02-16, 00:35:04,VALID,1002.04,VALID,0,VALID,87.5499,VALID,0,VALID,24.6575,VALID,148,VALID,0.926953,
2010-02-16, 00:36:04,VALID,1002.03,VALID,0,VALID,87.3973,VALID,0,VALID,24.6184,VALID,163,VALID,0.858203,
2010-02-16, 00:37:04,VALID,1002.02,VALID,0,VALID,87.5423,VALID,0,VALID,24.6184,VALID,163,VALID,0.705078,
2010-02-16, 00:38:04,VALID,1001.97,VALID,0,VALID,87.3973,VALID,0,VALID,24.5794,VALID,163,VALID,0.688281,
2010-02-16, 00:39:04,VALID,1001.97,VALID,0,VALID,87.2752,VALID,0,VALID,24.5794,VALID,182,VALID,0.382813,
2010-02-16, 00:40:04,VALID,1001.98,VALID,0,VALID,87.2905,VALID,0,VALID,24.5989,VALID,193,VALID,0.532031,
2010-02-16, 00:41:04,VALID,1001.93,VALID,0,VALID,87.2294,VALID,0,VALID,24.6184,VALID,193,VALID,0.662891,
2010-02-16, 00:42:04,VALID,1001.94,VALID,0,VALID,87.1913,VALID,0,VALID,24.638,VALID,193,VALID,0.380469,
2010-02-16, 00:43:04,VALID,1001.95,VALID,0,VALID,87.2447,VALID,0,VALID,24.6575,VALID,193,VALID,0.680469,
2010-02-16, 00:44:04,VALID,1001.95,VALID,0,VALID,87.321,VALID,0,VALID,24.6751,VALID,179,VALID,0.81875,
2010-02-16, 00:45:04,VALID,1001.95,VALID,0,VALID,87.4583,VALID,0,VALID,24.6946,VALID,149,VALID,0.817187,
2010-02-16, 00:46:04,VALID,1001.94,VALID,0,VALID,87.5575,VALID,0,VALID,24.6946,VALID,136,VALID,0.896094,
2010-02-16, 00:47:04,VALID,1001.92,VALID,0,VALID,87.527,VALID,0,VALID,24.6946,VALID,155,VALID,0.944141,
2010-02-16, 00:48:04,VALID,1001.95,VALID,0,VALID,87.4278,VALID,0,VALID,24.677,VALID,163,VALID,1.02539,
2010-02-16, 00:49:04,VALID,1001.93,VALID,0,VALID,87.2371,VALID,0,VALID,24.677,VALID,170,VALID,1.10312,
2010-02-16, 00:50:04,VALID,1001.93,VALID,0,VALID,87.0921,VALID,0,VALID,24.677,VALID,175,VALID,0.898438,
2010-02-16, 00:51:04,VALID,1001.9,VALID,0,VALID,87.2371,VALID,0,VALID,24.6965,VALID,170,VALID,0.780859,
2010-02-16, 00:52:04,VALID,1001.91,VALID,0,VALID,87.0921,VALID,0,VALID,24.677,VALID,167,VALID,0.855469,
2010-02-16, 00:53:04,VALID,1001.89,VALID,0,VALID,87.176,VALID,0,VALID,24.6946,VALID,175,VALID,0.73125,
2010-02-16, 00:54:04,VALID,1001.89,VALID,0,VALID,87.1989,VALID,0,VALID,24.7356,VALID,184,VALID,0.961328,
2010-02-16, 00:55:04,VALID,1001.89,VALID,0,VALID,87.0692,VALID,0,VALID,24.7337,VALID,189,VALID,0.827344,
2010-02-16, 00:56:04,VALID,1001.86,VALID,0,VALID,86.6801,VALID,0,VALID,24.7727,VALID,193,VALID,1.06484,
2010-02-16, 00:57:04,VALID,1001.89,VALID,0,VALID,86.6572,VALID,0,VALID,24.8332,VALID,195,VALID,0.822656,
2010-02-16, 00:58:04,VALID,1001.91,VALID,0,VALID,86.97,VALID,0,VALID,24.8117,VALID,145,VALID,1.16328,
2010-02-16, 00:59:04,VALID,1001.92,VALID,0,VALID,87.1303,VALID,0,VALID,24.8527,VALID,137,VALID,1.60195,
2010-02-16, 01:00:04,VALID,1001.93,VALID,0,VALID,87.4354,VALID,0,VALID,24.8117,VALID,147,VALID,1.18203,
2010-02-16, 01:01:04,VALID,1001.95,VALID,0,VALID,87.8703,VALID,0,VALID,24.7727,VALID,146,VALID,1.51367,
2010-02-16, 01:02:04,VALID,1001.92,VALID,0,VALID,88.2289,VALID,0,VALID,24.7922,VALID,150,VALID,1.30391,
2010-02-16, 01:03:04,VALID,1001.9,VALID,0,VALID,88.3434,VALID,0,VALID,24.7941,VALID,146,VALID,1.46797,
2010-02-16, 01:04:04,VALID,1001.89,VALID,0,VALID,88.5417,VALID,0,VALID,24.7337,VALID,149,VALID,1.7957,
2010-02-16, 01:05:04,VALID,1001.84,VALID,0,VALID,88.6791,VALID,0,VALID,24.7142,VALID,148,VALID,1.77969,
2010-02-16, 01:06:04,VALID,1001.85,VALID,0,VALID,89.0529,VALID,0,VALID,24.716,VALID,162,VALID,1.58398,
2010-02-16, 01:07:04,VALID,1001.85,VALID,0,VALID,88.9385,VALID,0,VALID,24.6946,VALID,157,VALID,1.33906,
2010-02-16, 01:08:04,VALID,1001.85,VALID,0,VALID,89.0071,VALID,0,VALID,24.6556,VALID,177,VALID,1.3918,
2010-02-16, 01:09:04,VALID,1001.83,VALID,0,VALID,89.2055,VALID,0,VALID,24.6575,VALID,184,VALID,0.810156,
2010-02-16, 01:10:04,VALID,1001.82,VALID,0,VALID,89.5336,VALID,0,VALID,24.6556,VALID,194,VALID,0.870313,
2010-02-16, 01:11:04,VALID,1001.82,VALID,0,VALID,89.7549,VALID,0,VALID,24.6556,VALID,196,VALID,0.694141,
2010-02-16, 01:12:04,VALID,1001.82,VALID,0,VALID,89.7777,VALID,0,VALID,24.716,VALID,198,VALID,0.699219,
2010-02-16, 01:13:04,VALID,1001.87,VALID,0,VALID,89.854,VALID,0.112286,VALID,24.7142,VALID,198,VALID,0.406641,
2010-02-16, 01:14:04,VALID,1001.87,VALID,0,VALID,89.8464,VALID,0,VALID,24.716,VALID,199,VALID,0,
2010-02-16, 01:15:04,VALID,1001.87,VALID,0.5,VALID,89.8769,VALID,0,VALID,24.716,VALID,198,VALID,0,
2010-02-16, 01:16:04,VALID,1001.91,VALID,0,VALID,89.8922,VALID,0,VALID,24.7179,VALID,198,VALID,0,
2010-02-16, 01:17:04,VALID,1001.87,VALID,0,VALID,89.9532,VALID,0,VALID,24.6965,VALID,198,VALID,0,
2010-02-16, 01:18:04,VALID,1001.84,VALID,0,VALID,89.9914,VALID,0,VALID,24.716,VALID,198,VALID,0,
2010-02-16, 01:19:04,VALID,1001.83,VALID,0,VALID,90.0448,VALID,0,VALID,24.716,VALID,200,VALID,0.826172,
2010-02-16, 01:20:04,VALID,1001.83,VALID,0,VALID,90.0143,VALID,0,VALID,24.7356,VALID,220,VALID,0.835547,
2010-02-16, 01:21:04,VALID,1001.83,VALID,0,VALID,89.9685,VALID,0,VALID,24.716,VALID,232,VALID,0.7625,
2010-02-16, 01:22:04,VALID,1001.81,VALID,0,VALID,90.0371,VALID,0,VALID,24.7356,VALID,236,VALID,0.722656,
2010-02-16, 01:23:04,VALID,1001.79,VALID,0,VALID,90.0906,VALID,0,VALID,24.757,VALID,236,VALID,0.7125,
2010-02-16, 01:24:04,VALID,1001.78,VALID,0,VALID,90.0677,VALID,0,VALID,24.7356,VALID,236,VALID,0.623438,
2010-02-16, 01:25:04,VALID,1001.78,VALID,0,VALID,90.1363,VALID,0,VALID,24.7356,VALID,236,VALID,0.359375,
2010-02-16, 01:26:04,VALID,1001.76,VALID,0,VALID,90.1974,VALID,0,VALID,24.757,VALID,225,VALID,0.461328,
2010-02-16, 01:27:04,VALID,1001.77,VALID,0,VALID,90.2813,VALID,0,VALID,24.7765,VALID,223,VALID,0.183594,
2010-02-16, 01:28:04,VALID,1001.75,VALID,0,VALID,90.5178,VALID,0,VALID,24.7551,VALID,149,VALID,1.14258,
2010-02-16, 01:29:04,VALID,1001.74,VALID,0,VALID,90.4644,VALID,0,VALID,24.7551,VALID,137,VALID,0.788281,
2010-02-16, 01:30:04,VALID,1001.73,VALID,0,VALID,90.3576,VALID,0,VALID,24.7356,VALID,137,VALID,0.662891,
2010-02-16, 01:31:04,VALID,1001.75,VALID,0,VALID,90.3728,VALID,0,VALID,24.7356,VALID,135,VALID,0.374609,
2010-02-16, 01:32:04,VALID,1001.76,VALID,0,VALID,90.411,VALID,0,VALID,24.7356,VALID,135,VALID,0.363672,
2010-02-16, 01:33:04,VALID,1001.78,VALID,0,VALID,90.5254,VALID,0,VALID,24.7551,VALID,115,VALID,1.01016,
2010-02-16, 01:34:04,VALID,1001.78,VALID,0,VALID,90.6399,VALID,0,VALID,24.7551,VALID,111,VALID,0.833594,
2010-02-16, 01:35:04,VALID,1001.8,VALID,0,VALID,90.762,VALID,0,VALID,24.7941,VALID,100,VALID,1.12891,
2010-02-16, 01:36:04,VALID,1001.82,VALID,0,VALID,90.7696,VALID,0,VALID,24.7727,VALID,98,VALID,0.963281,
2010-02-16, 01:37:04,VALID,1001.81,VALID,0,VALID,90.9832,VALID,0,VALID,24.8136,VALID,95,VALID,0.927344,
2010-02-16, 01:38:04,VALID,1001.84,VALID,0.5,VALID,91.0824,VALID,0,VALID,24.8136,VALID,92,VALID,1.38516,
2010-02-16, 01:39:04,VALID,1001.81,VALID,0,VALID,91.0977,VALID,0,VALID,24.8136,VALID,109,VALID,1.40195,
2010-02-16, 01:40:04,VALID,1001.77,VALID,0,VALID,90.968,VALID,0,VALID,24.7746,VALID,138,VALID,1.47773,
2010-02-16, 01:41:04,VALID,1001.79,VALID,0.5,VALID,91.1206,VALID,0,VALID,24.7356,VALID,109,VALID,1.47617,
2010-02-16, 01:42:04,VALID,1001.82,VALID,0,VALID,91.3571,VALID,0,VALID,24.716,VALID,111,VALID,1.00156,
2010-02-16, 01:43:04,VALID,1001.81,VALID,0.5,VALID,91.4639,VALID,0,VALID,24.716,VALID,111,VALID,1.69961,
2010-02-16, 01:44:04,VALID,1001.8,VALID,0,VALID,91.4257,VALID,0.112286,VALID,24.6946,VALID,127,VALID,1.42734,
2010-02-16, 01:45:04,VALID,1001.77,VALID,0.5,VALID,91.4563,VALID,0.112286,VALID,24.6556,VALID,127,VALID,1.24141,
2010-02-16, 01:46:04,VALID,1001.78,VALID,0,VALID,91.5326,VALID,0,VALID,24.6556,VALID,114,VALID,0.905859,
2010-02-16, 01:47:04,VALID,1001.77,VALID,0,VALID,91.6775,VALID,0,VALID,24.6361,VALID,107,VALID,1.38086,
2010-02-16, 01:48:04,VALID,1001.82,VALID,0,VALID,91.6699,VALID,0,VALID,24.638,VALID,105,VALID,2.25352,
2010-02-16, 01:49:04,VALID,1001.8,VALID,0.5,VALID,91.2808,VALID,0,VALID,24.558,VALID,83,VALID,2.38672,
2010-02-16, 01:50:04,VALID,1001.82,VALID,0.5,VALID,90.8764,VALID,0.112286,VALID,24.48,VALID,75,VALID,2.85391,
2010-02-16, 01:51:04,VALID,1001.82,VALID,0.5,VALID,91.1511,VALID,0.112286,VALID,24.4604,VALID,71,VALID,2.73789,
2010-02-16, 01:52:04,VALID,1001.85,VALID,0,VALID,91.2426,VALID,0.112286,VALID,24.4,VALID,79,VALID,1.77461,
2010-02-16, 01:53:04,VALID,1001.87,VALID,0.5,VALID,91.441,VALID,0.112286,VALID,24.3824,VALID,77,VALID,2.13789,
2010-02-16, 01:54:04,VALID,1001.82,VALID,0.5,VALID,91.5783,VALID,0.112286,VALID,24.322,VALID,67,VALID,1.91602,
2010-02-16, 01:55:04,VALID,1001.81,VALID,0,VALID,91.6546,VALID,0.112286,VALID,24.2848,VALID,49,VALID,1.91406,
2010-02-16, 01:56:04,VALID,1001.79,VALID,0.5,VALID,91.3266,VALID,0,VALID,24.1872,VALID,50,VALID,1.92813,
2010-02-16, 01:57:04,VALID,1001.75,VALID,0,VALID,91.6317,VALID,0.112286,VALID,24.1482,VALID,52,VALID,0.701953,
2010-02-16, 01:58:04,VALID,1001.75,VALID,0,VALID,91.6699,VALID,0,VALID,24.1287,VALID,38,VALID,1.38672,
2010-02-16, 01:59:04,VALID,1001.74,VALID,0,VALID,91.6775,VALID,0.112286,VALID,24.0897,VALID,31,VALID,1.45391,
2010-02-16, 02:00:04,VALID,1001.72,VALID,0.5,VALID,91.853,VALID,0.112286,VALID,24.0897,VALID,9,VALID,0.789063,
2010-02-16, 02:01:04,VALID,1001.73,VALID,0,VALID,91.9064,VALID,0,VALID,24.0701,VALID,9,VALID,0.310156,
2010-02-16, 02:02:04,VALID,1001.71,VALID,0,VALID,91.9217,VALID,0,VALID,24.0506,VALID,75,VALID,0.724219,
2010-02-16, 02:03:04,VALID,1001.7,VALID,0.5,VALID,91.6241,VALID,0,VALID,23.9921,VALID,43,VALID,0.813672,
2010-02-16, 02:04:04,VALID,1001.61,VALID,0,VALID,91.3876,VALID,0.112286,VALID,23.875,VALID,33,VALID,0.446484,
2010-02-16, 02:05:04,VALID,1001.6,VALID,0.5,VALID,91.5097,VALID,0,VALID,23.836,VALID,34,VALID,0.485938,
2010-02-16, 02:06:04,VALID,1001.57,VALID,0,VALID,91.9903,VALID,0.112286,VALID,23.8555,VALID,296,VALID,1.17539,
2010-02-16, 02:07:04,VALID,1001.54,VALID,0,VALID,91.8606,VALID,0.112286,VALID,23.836,VALID,273,VALID,0.683203,
2010-02-16, 02:08:04,VALID,1001.51,VALID,0,VALID,91.8835,VALID,0,VALID,23.8555,VALID,296,VALID,0.985156,
2010-02-16, 02:09:04,VALID,1001.47,VALID,0.5,VALID,91.8454,VALID,0,VALID,23.8555,VALID,343,VALID,1.89375,
2010-02-16, 02:10:04,VALID,1001.46,VALID,0,VALID,91.1511,VALID,0.112286,VALID,23.8945,VALID,343,VALID,0.679297,
2010-02-16, 02:11:04,VALID,1001.47,VALID,0,VALID,91.2808,VALID,0.112286,VALID,23.9336,VALID,267,VALID,0.356641,
2010-02-16, 02:12:04,VALID,1001.42,VALID,0,VALID,91.4257,VALID,0.112286,VALID,23.9726,VALID,302,VALID,0.953516,
2010-02-16, 02:13:04,VALID,1001.47,VALID,0,VALID,91.4563,VALID,0.112286,VALID,23.9726,VALID,304,VALID,0.280078,
2010-02-16, 02:14:04,VALID,1001.46,VALID,0,VALID,91.5631,VALID,0,VALID,23.9531,VALID,304,VALID,0.566406,
2010-02-16, 02:15:04,VALID,1001.47,VALID,0,VALID,91.7004,VALID,0.112286,VALID,23.9726,VALID,4,VALID,0.308203,
2010-02-16, 02:16:04,VALID,1001.48,VALID,0,VALID,91.7462,VALID,0,VALID,23.9726,VALID,321,VALID,0.764063,
2010-02-16, 02:17:04,VALID,1001.52,VALID,0,VALID,91.8606,VALID,0,VALID,23.9726,VALID,320,VALID,0,
2010-02-16, 02:18:04,VALID,1001.49,VALID,0,VALID,91.8377,VALID,0,VALID,23.9726,VALID,333,VALID,1.22578,
2010-02-16, 02:19:04,VALID,1001.5,VALID,0,VALID,91.8911,VALID,0.112286,VALID,23.9708,VALID,14,VALID,0.614453,
2010-02-16, 02:20:04,VALID,1001.5,VALID,0,VALID,91.8225,VALID,0.112286,VALID,23.9921,VALID,339,VALID,0.667578,
2010-02-16, 02:21:04,VALID,1001.47,VALID,0,VALID,91.8377,VALID,0,VALID,24.0116,VALID,338,VALID,0.0289063,
2010-02-16, 02:22:04,VALID,1001.46,VALID,0,VALID,91.8988,VALID,0.112286,VALID,24.0116,VALID,338,VALID,0,
2010-02-16, 02:23:04,VALID,1001.49,VALID,0,VALID,91.9598,VALID,0.112286,VALID,23.9921,VALID,339,VALID,0,
2010-02-16, 02:24:04,VALID,1001.51,VALID,0,VALID,92.0285,VALID,0.112286,VALID,23.9903,VALID,338,VALID,0,
2010-02-16, 02:25:04,VALID,1001.56,VALID,0,VALID,92.0971,VALID,0,VALID,23.9903,VALID,339,VALID,0.0464844,
2010-02-16, 02:26:04,VALID,1001.56,VALID,0,VALID,92.0514,VALID,0.112286,VALID,23.9921,VALID,68,VALID,0.561719,
2010-02-16, 02:27:04,VALID,1001.57,VALID,0,VALID,92.1734,VALID,0.112286,VALID,23.9726,VALID,100,VALID,1.03008,
2010-02-16, 02:28:04,VALID,1001.57,VALID,0,VALID,92.3337,VALID,0.112286,VALID,23.9726,VALID,119,VALID,1.08203,
2010-02-16, 02:29:04,VALID,1001.59,VALID,0,VALID,92.3871,VALID,0,VALID,23.9726,VALID,116,VALID,1.06602,
2010-02-16, 02:30:04,VALID,1001.59,VALID,0,VALID,92.3489,VALID,0,VALID,23.9939,VALID,128,VALID,1.06562,
2010-02-16, 02:31:04,VALID,1001.56,VALID,0,VALID,92.2345,VALID,0,VALID,23.9744,VALID,132,VALID,1.14141,
2010-02-16, 02:32:04,VALID,1001.55,VALID,0,VALID,92.3489,VALID,0,VALID,23.9744,VALID,145,VALID,0,
2010-02-16, 02:33:04,VALID,1001.56,VALID,0,VALID,92.4328,VALID,0,VALID,23.9939,VALID,173,VALID,0,
2010-02-16, 02:34:04,VALID,1001.5,VALID,0,VALID,92.326,VALID,0,VALID,23.9744,VALID,166,VALID,0.211719,
2010-02-16, 02:35:04,VALID,1001.49,VALID,0,VALID,92.2497,VALID,0,VALID,23.9336,VALID,162,VALID,1.25195,
2010-02-16, 02:36:04,VALID,1001.47,VALID,0,VALID,92.3489,VALID,0,VALID,23.914,VALID,164,VALID,0.942578,
2010-02-16, 02:37:04,VALID,1001.46,VALID,0,VALID,92.41,VALID,0,VALID,23.9336,VALID,172,VALID,1.08633,
2010-02-16, 02:38:04,VALID,1001.48,VALID,0,VALID,92.4176,VALID,0,VALID,23.9549,VALID,160,VALID,1.2207,
2010-02-16, 02:39:04,VALID,1001.46,VALID,0,VALID,92.3031,VALID,0,VALID,23.914,VALID,159,VALID,1.325,
2010-02-16, 02:40:04,VALID,1001.44,VALID,0,VALID,92.4176,VALID,0,VALID,23.9336,VALID,171,VALID,1.52539,
2010-02-16, 02:41:04,VALID,1001.45,VALID,0,VALID,92.5168,VALID,0,VALID,23.9531,VALID,165,VALID,1.44922,
2010-02-16, 02:42:04,VALID,1001.42,VALID,0,VALID,92.532,VALID,0,VALID,23.9726,VALID,166,VALID,1.06406,
2010-02-16, 02:43:04,VALID,1001.44,VALID,0,VALID,92.5702,VALID,0,VALID,23.9921,VALID,171,VALID,1.56914,
2010-02-16, 02:44:04,VALID,1001.44,VALID,0,VALID,92.4939,VALID,0,VALID,23.9921,VALID,168,VALID,1.35586,
2010-02-16, 02:45:04,VALID,1001.42,VALID,0,VALID,92.4939,VALID,0,VALID,23.9921,VALID,163,VALID,1.67539,
2010-02-16, 02:46:04,VALID,1001.44,VALID,0,VALID,92.5626,VALID,0,VALID,24.0116,VALID,159,VALID,1.36367,
2010-02-16, 02:47:04,VALID,1001.42,VALID,0,VALID,92.6236,VALID,0.112286,VALID,24.0311,VALID,159,VALID,1.24492,
2010-02-16, 02:48:04,VALID,1001.41,VALID,0,VALID,92.5015,VALID,0,VALID,24.0116,VALID,164,VALID,1.69922,
2010-02-16, 02:49:04,VALID,1001.37,VALID,0.5,VALID,92.4328,VALID,0,VALID,23.9921,VALID,171,VALID,1.5457,
2010-02-16, 02:50:04,VALID,1001.39,VALID,0,VALID,92.2574,VALID,0,VALID,23.9531,VALID,176,VALID,2.22031,
2010-02-16, 02:51:04,VALID,1001.38,VALID,0,VALID,92.4863,VALID,0,VALID,23.9531,VALID,175,VALID,1.55234,
2010-02-16, 02:52:04,VALID,1001.37,VALID,0,VALID,92.6617,VALID,0,VALID,23.9921,VALID,177,VALID,2.09531,
2010-02-16, 02:53:04,VALID,1001.35,VALID,0,VALID,92.6236,VALID,0,VALID,23.9726,VALID,181,VALID,2.42461,
2010-02-16, 02:54:04,VALID,1001.35,VALID,0.5,VALID,92.6541,VALID,0,VALID,23.9336,VALID,183,VALID,2.24258,
2010-02-16, 02:55:04,VALID,1001.29,VALID,0,VALID,92.7457,VALID,0,VALID,23.9531,VALID,192,VALID,1.84648,
2010-02-16, 02:56:04,VALID,1001.31,VALID,0,VALID,92.7914,VALID,0,VALID,23.9336,VALID,182,VALID,1.66641,
2010-02-16, 02:57:04,VALID,1001.3,VALID,0,VALID,92.7991,VALID,0,VALID,23.914,VALID,187,VALID,1.32266,
2010-02-16, 02:58:04,VALID,1001.31,VALID,0,VALID,92.7991,VALID,0,VALID,23.8945,VALID,183,VALID,1.27852,
2010-02-16, 02:59:04,VALID,1001.32,VALID,0,VALID,92.7609,VALID,0,VALID,23.8555,VALID,175,VALID,1.76055,
2010-02-16, 03:00:04,VALID,1001.28,VALID,0,VALID,92.8296,VALID,0,VALID,23.875,VALID,190,VALID,1.83047,
2010-02-16, 03:01:04,VALID,1001.28,VALID,0.5,VALID,92.7914,VALID,0,VALID,23.836,VALID,197,VALID,1.51836,
2010-02-16, 03:02:04,VALID,1001.29,VALID,0,VALID,92.7762,VALID,0,VALID,23.836,VALID,187,VALID,1.55313,
2010-02-16, 03:03:04,VALID,1001.31,VALID,0,VALID,92.7991,VALID,0,VALID,23.836,VALID,178,VALID,1.18398,
2010-02-16, 03:04:04,VALID,1001.27,VALID,0,VALID,92.7914,VALID,0,VALID,23.836,VALID,184,VALID,0.698047,
2010-02-16, 03:05:04,VALID,1001.24,VALID,0,VALID,92.7991,VALID,0.112286,VALID,23.836,VALID,194,VALID,1.23008,
2010-02-16, 03:06:04,VALID,1001.26,VALID,0,VALID,92.8448,VALID,0,VALID,23.836,VALID,181,VALID,1.32461,
2010-02-16, 03:07:04,VALID,1001.26,VALID,0,VALID,92.7228,VALID,0,VALID,23.797,VALID,180,VALID,2.01875,
2010-02-16, 03:08:04,VALID,1001.21,VALID,0,VALID,92.7838,VALID,0,VALID,23.8165,VALID,185,VALID,1.78516,
2010-02-16, 03:09:04,VALID,1001.22,VALID,0,VALID,92.8525,VALID,0.112286,VALID,23.8555,VALID,174,VALID,2.22852,
2010-02-16, 03:10:04,VALID,1001.2,VALID,0,VALID,92.8067,VALID,0,VALID,23.8165,VALID,179,VALID,1.98008,
2010-02-16, 03:11:04,VALID,1001.22,VALID,0,VALID,92.8448,VALID,0,VALID,23.8378,VALID,174,VALID,1.87031,
2010-02-16, 03:12:05,VALID,1001.16,VALID,0,VALID,92.9288,VALID,0.112286,VALID,23.8555,VALID,169,VALID,1.4625,
2010-02-16, 03:13:05,VALID,1001.17,VALID,0,VALID,93.028,VALID,0,VALID,23.8945,VALID,181,VALID,1.40547,
2010-02-16, 03:14:05,VALID,1001.19,VALID,0,VALID,93.0127,VALID,0,VALID,23.9159,VALID,172,VALID,1.55898,
2010-02-16, 03:15:05,VALID,1001.16,VALID,0,VALID,92.8906,VALID,0,VALID,23.8555,VALID,180,VALID,1.65039,
2010-02-16, 03:16:05,VALID,1001.18,VALID,0,VALID,92.8296,VALID,0,VALID,23.8573,VALID,183,VALID,1.29414,
2010-02-16, 03:17:05,VALID,1001.16,VALID,0,VALID,92.9059,VALID,0,VALID,23.8768,VALID,171,VALID,1.31055,
2010-02-16, 03:18:05,VALID,1001.18,VALID,0,VALID,92.8601,VALID,0,VALID,23.8786,VALID,169,VALID,1.76445,
2010-02-16, 03:19:05,VALID,1001.17,VALID,0,VALID,92.8906,VALID,0,VALID,23.8573,VALID,169,VALID,1.38828,
2010-02-16, 03:20:05,VALID,1001.2,VALID,0,VALID,92.9288,VALID,0,VALID,23.8573,VALID,166,VALID,1.2625,
2010-02-16, 03:21:05,VALID,1001.17,VALID,0,VALID,92.9211,VALID,0,VALID,23.8591,VALID,172,VALID,1.52266,
2010-02-16, 03:22:05,VALID,1001.17,VALID,0,VALID,92.9135,VALID,0,VALID,23.8378,VALID,172,VALID,1.14727,
2010-02-16, 03:23:05,VALID,1001.18,VALID,0,VALID,92.944,VALID,0,VALID,23.8183,VALID,170,VALID,1.18164,
2010-02-16, 03:24:05,VALID,1001.19,VALID,0,VALID,92.9822,VALID,0,VALID,23.8591,VALID,174,VALID,1.11094,
2010-02-16, 03:25:05,VALID,1001.19,VALID,0,VALID,92.9974,VALID,0,VALID,23.8573,VALID,172,VALID,1.07773,
2010-02-16, 03:26:05,VALID,1001.19,VALID,0,VALID,93.028,VALID,0,VALID,23.8573,VALID,176,VALID,0.920703,
2010-02-16, 03:27:05,VALID,1001.2,VALID,0,VALID,93.0203,VALID,0,VALID,23.8378,VALID,155,VALID,0.807031,
2010-02-16, 03:28:05,VALID,1001.23,VALID,0,VALID,93.0356,VALID,0,VALID,23.8573,VALID,158,VALID,0.625781,
2010-02-16, 03:29:05,VALID,1001.23,VALID,0,VALID,93.0661,VALID,0,VALID,23.875,VALID,167,VALID,0.594531,
2010-02-16, 03:30:05,VALID,1001.24,VALID,0,VALID,93.0661,VALID,0,VALID,23.875,VALID,172,VALID,1.12734,
2010-02-16, 03:31:05,VALID,1001.25,VALID,0,VALID,93.0737,VALID,0.112286,VALID,23.8945,VALID,175,VALID,0.441406,
2010-02-16, 03:32:05,VALID,1001.28,VALID,0,VALID,93.0661,VALID,0.112286,VALID,23.8945,VALID,177,VALID,0.716016,
2010-02-16, 03:33:05,VALID,1001.26,VALID,0,VALID,93.0585,VALID,0.112286,VALID,23.8945,VALID,181,VALID,0.492188,
2010-02-16, 03:34:05,VALID,1001.27,VALID,0,VALID,93.089,VALID,0,VALID,23.9159,VALID,184,VALID,0.86875,
2010-02-16, 03:35:05,VALID,1001.24,VALID,0,VALID,93.1043,VALID,0,VALID,23.9354,VALID,193,VALID,1.30234,
2010-02-16, 03:36:05,VALID,1001.27,VALID,0,VALID,93.089,VALID,0,VALID,23.9354,VALID,183,VALID,1.07344,
2010-02-16, 03:37:05,VALID,1001.28,VALID,0,VALID,93.089,VALID,0,VALID,23.9762,VALID,187,VALID,0.978906,
2010-02-16, 03:38:05,VALID,1001.32,VALID,0,VALID,93.089,VALID,0,VALID,23.9744,VALID,189,VALID,0.450781,
2010-02-16, 03:39:05,VALID,1001.32,VALID,0,VALID,93.0737,VALID,0,VALID,23.9744,VALID,178,VALID,0.0195313,
2010-02-16, 03:40:05,VALID,1001.31,VALID,0,VALID,93.0508,VALID,0,VALID,23.9744,VALID,180,VALID,0.582031,
2010-02-16, 03:41:05,VALID,1001.35,VALID,0,VALID,93.0051,VALID,0,VALID,23.9744,VALID,182,VALID,0.495313,
2010-02-16, 03:42:05,VALID,1001.35,VALID,0,VALID,92.9822,VALID,0,VALID,23.9939,VALID,213,VALID,0,
2010-02-16, 03:43:05,VALID,1001.37,VALID,0,VALID,92.9822,VALID,0,VALID,23.9744,VALID,221,VALID,0,
2010-02-16, 03:44:05,VALID,1001.36,VALID,0,VALID,92.9593,VALID,0.112286,VALID,23.9921,VALID,224,VALID,0,